Tracking 32579 objects as of 16-Dec-2025
HD Live streaming from Space Station
objects crossing your sky now

COSMOS 397 DEB

Track COSMOS 397 DEB now!
10-day predictions


NORAD ID: 5018
Int'l Code: 1971-015M
Perigee: 569.4 km
Apogee: 2,124.0 km
Inclination: 65.7 °
Period: 112.5 minutes
Semi major axis: 7717 km
RCS: 0.1181 m2 (medium)
Launch date: February 25, 1971
Source: Commonwealth of Independent States (former USSR) (CIS)
Launch site: TYURATAM MISSILE AND SPACE COMPLEX (TTMTR)

Note: This is SATELLITE DEBRIS
Your satellite tracking list
Your tracking list is empty




NASA's NSSDC Master Catalog

Two Line Element Set (TLE):
1 05018U 71015M   25349.87498989  .00000108  00000-0  85266-4 0  9993
2 05018  65.7109 155.4904 1007157 282.4232  66.6024 12.80470158555629
Source of the keplerian elements: AFSPC